Simultaneous Nadir Overpasses (SNOs) Predictions

Prediction of SNOs between GOES-15 and TERRA Satellite Orbit:

Table of predicted SNOs for the next 14.0 days since TLE Epoch: 10/15/2016
Index Date Time (GOES-15) GOES-15 Lat,Lon TERRA Lat,Lon Distance(km) Time Diff (sec)
1 10/16/2016 19:21:49 -0.30,-134.89 -0.75,-132.63 255.65 80
2 10/17/2016 07:43:13 0.30,-134.85 -0.35,-137.83 339.15 80
3 10/19/2016 07:31:01 0.30,-134.76 0.28,-134.87 12.09 80
4 10/21/2016 07:16:08 0.29,-134.67 0.86,-131.90 314.45 80
5 10/21/2016 19:37:23 -0.29,-134.66 0.21,-137.06 272.56 80
6 10/23/2016 19:27:51 -0.28,-134.57 -0.38,-134.10 53.68 80
7 10/25/2016 19:15:39 -0.28,-134.47 -1.02,-131.14 379.72 80
8 10/26/2016 07:37:01 0.28,-134.44 -0.13,-136.32 214.34 80
9 10/28/2016 07:22:08 0.28,-134.34 0.47,-133.36 111.17 80
10 10/28/2016 19:43:24 -0.27,-134.32 0.60,-138.52 477.24 80




NCC Satellite Simultaneous Nadir Overpasses (SNOs) Prediction Service
